Zurück zum Katalog

STARLINK-35520

AktivKommunikationVLEO
NORAD 66133·PAYLOAD·🇺🇸 United States

Gestartet Oct 22, 2025 von Vandenberg Space Force Base

Loading…

Nächste Überflüge (nächste 24 Stunden)

TLE

AktuellSource: CelesTrak SupGP

Epoche: Sep 14, 2026, 15:20 UTC

1 66133C 25237V   26257.63937500 -.00025517  00000+0 -75410-3 0  2571
2 66133  53.1571 238.8153 0001245  90.1116 285.9347 15.34395502    19

Verfolge STARLINK-35520 in Echtzeit mit AllMySat

Download on the App Store